Temperature
15 16 16 17 14 12 14 14 14 15 16 16 17 17 16 16 16 17 17 17 17 17 16 16 16 16 15 15 15 15 15 15 15 15 15 15 15 15 15 15 14 15 15 14 14 14 14 14 14
15 16 16 16 12 13 13 13 14 15 16 16 16 16 16 16 16 16 17 16 16 16 16 16 16 16 15 15 15 15 15 15 15 15 15 15 15 15 15 15 14 14 14 14 14 14 14 14 14
15 15 15 11 12 13 14 14 14 15 16 16 15 15 15 15 16 16 16 16 16 16 16 16 15 15 15 15 15 15 15 15 15 15 15 15 14 14 14 14 14 14 14 14 14 14 14 14 14
14 15 13 11 12 12 13 14 13 14 15 15 15 14 15 15 15 15 16 16 16 16 15 15 15 15 15 15 15 15 15 15 15 14 14 14 14 14 14 14 14 14 14 14 14 14 14 14 14
14 14 11 11 11 12 12 13 14 14 14 14 14 13 14 15 15 15 15 15 15 15 15 15 15 15 15 15 15 15 14 14 14 14 14 14 14 14 14 14 14 14 14 14 14 13 13 13 14
13 10 10 11 11 11 12 13 13 13 13 14 14 13 14 15 15 15 15 15 15 15 15 15 15 15 15 15 15 14 14 14 14 14 14 14 14 14 14 14 14 14 14 14 13 13 13 13 13
11 9 10 10 11 11 12 13 13 12 12 13 14 13 14 15 15 15 15 15 14 15 15 15 14 14 14 14 14 14 14 14 14 14 14 14 14 14 14 14 14 14 13 13 13 13 13 13 13
12 9 10 9 10 11 11 13 13 13 13 14 14 13 13 14 14 14 14 14 14 14 14 14 14 14 14 14 14 14 14 14 14 14 14 14 13 13 13 13 13 13 13 13 13 13 13 13 13
11 8 9 9 10 11 11 11 12 13 13 13 13 13 14 14 14 13 13 13 14 14 14 14 14 14 14 14 14 13 13 13 13 13 13 13 13 13 13 13 13 13 13 13 13 13 13 13 13
9 8 9 10 10 10 10 11 11 12 11 12 13 13 13 13 13 13 13 13 13 13 14 14 14 14 14 14 13 13 13 13 13 13 13 13 13 13 13 13 13 13 13 13 13 13 13 13 13
8 8 9 9 10 10 10 10 11 11 10 11 12 13 13 13 13 13 13 13 13 13 13 13 13 13 13 13 13 13 13 13 13 13 13 13 13 13 13 13 13 13 13 13 12 13 13 12 12
7 7 8 8 9 9 9 10 10 10 11 12 12 12 12 12 13 13 13 13 13 13 13 13 13 13 13 13 13 13 13 13 13 13 13 12 12 12 12 12 12 12 12 12 12 12 12 12 12
6 7 8 8 9 9 9 9 9 10 11 12 12 12 12 12 12 12 12 12 12 12 12 12 12 12 12 12 12 13 13 13 13 12 12 12 12 12 12 12 12 12 12 12 12 12 12 12 12
6 6 7 8 8 8 8 8 8 9 11 11 11 11 11 12 12 12 12 12 12 12 12 12 12 12 12 12 12 12 12 12 12 12 12 12 12 12 12 12 12 12 12 12 12 12 12 12 12
6 6 6 7 7 8 8 7 7 10 10 10 10 11 11 11 11 11 11 11 12 12 12 12 12 12 11 12 12 12 12 12 12 12 11 11 11 11 11 11 11 11 11 11 11 11 11 11 11
6 6 6 7 7 7 7 7 8 9 9 9 9 10 10 10 11 11 11 11 11 11 11 11 11 11 11 11 11 11 11 11 11 11 11 11 11 11 11 11 11 11 11 11 11 11 11 11 11
5 5 5 6 7 7 6 6 7 8 8 8 8 9 9 10 10 11 11 11 11 11 11 11 11 11 11 11 11 11 11 11 11 11 11 11 11 11 11 11 11 11 11 10 10 11 10 11 11
5 5 5 5 6 6 5 6 6 7 7 7 7 8 8 9 10 10 11 11 10 10 10 11 11 11 11 10 10 10 10 10 10 11 11 11 10 10 10 10 10 10 10 10 10 10 10 10 10
4 4 4 5 5 5 5 5 6 6 6 6 6 7 7 8 9 10 10 10 10 10 10 10 10 10 10 10 10 10 10 10 10 10 10 10 10 10 10 10 10 10 10 10 10 10 10 10 10
4 4 4 4 5 5 4 5 5 5 5 6 6 6 7 8 8 9 9 9 9 10 10 10 10 10 10 10 10 9 10 10 10 10 10 10 10 10 10 10 10 10 10 10 10 9 9 9 9
4 4 4 4 4 4 4 5 5 5 5 6 6 6 7 7 8 9 9 9 9 9 9 9 9 9 9 9 9 9 9 9 9 9 9 9 9 9 10 9 9 9 9 9 9 9 9 9 9
4 4 4 4 4 3 3 4 5 4 4 5 5 6 7 7 8 8 8 9 9 9 9 9 9 9 9 9 9 9 9 9 9 9 9 9 9 9 9 9 9 9 9 9 9 9 9 9 9
4 4 4 4 3 2 2 3 4 4 4 5 5 6 6 7 7 8 8 8 8 8 9 9 9 9 9 9 8 8 8 9 9 9 9 9 9 9 9 9 9 9 9 9 9 9 9 8 8
4 3 3 2 2 3 3 3 3 3 4 4 4 5 6 7 7 7 8 8 8 8 8 8 8 8 8 8 8 8 8 8 8 8 8 8 8 8 8 8 8 8 8 8 8 8 8 8 8
3 3 3 2 2 2 3 3 4 4 4 4 4 5 5 6 6 7 7 7 7 8 8 8 8 8 8 8 8 8 8 8 8 8 8 8 8 8 8 8 8 8 8 8 8 8 8 8 8
3 3 3 3 2 2 2 2 3 4 4 4 4 4 5 5 6 6 7 7 7 7 7 7 8 8 8 8 8 8 7 7 7 7 7 7 7 8 8 8 8 7 7 7 8 7 7 7 7
3 2 3 2 1 1 2 2 2 3 3 3 3 4 4 5 5 6 6 6 6 7 7 7 7 7 7 7 7 7 7 7 7 7 7 7 7 7 7 7 7 7 7 7 7 7 7 7 7
2 2 1 2 2 3 2 2 3 3 3 3 2 3 3 4 4 5 5 6 6 6 6 6 7 7 7 7 7 7 7 7 7 7 6 6 7 7 7 7 7 7 7 7 7 7 7 6 6
1 1 1 1 1 2 2 3 3 2 2 2 2 3 3 3 4 4 5 5 5 5 5 5 6 6 6 6 6 6 6 6 6 6 6 6 6 6 6 6 6 6 6 6 6 6 6 6 6
2 1 1 2 1 0 1 3 3 2 2 1 2 2 2 2 3 3 4 4 4 4 5 5 5 5 6 6 6 6 6 6 6 6 6 6 6 6 6 6 6 6 6 6 6 6 6 6 5
Wind_Speed
11 7 2 4 5 3 4 5 3 2 2 1 1 3 5 5 5 3 1 3 5 6 9 13 14 13 13 13 13 13 13 13 13 14 14 14 13 13 13 12 12 12 11 11 11 12 12 12 12
5 3 4 4 4 3 6 5 6 5 2 1 2 2 2 2 0 1 1 1 5 7 8 11 14 14 13 13 13 13 13 13 13 13 13 13 13 12 12 12 12 11 11 11 11 12 12 11 11
3 4 4 4 5 8 6 4 6 3 1 1 1 1 1 1 1 2 2 4 4 5 7 10 14 14 13 13 13 13 13 13 13 13 13 12 12 12 12 11 11 11 10 11 11 11 11 11 11
3 4 4 3 7 6 5 3 2 1 1 1 2 1 1 1 1 2 2 5 6 4 6 9 12 13 13 13 13 13 13 13 13 13 12 12 12 11 11 11 10 10 10 10 10 11 11 10 11
4 4 2 3 7 4 4 4 2 2 1 0 2 1 2 2 1 1 4 5 6 5 5 7 10 12 13 13 12 13 12 12 12 12 12 12 11 11 11 10 10 10 10 10 9 9 10 10 10
4 4 3 7 8 5 3 3 0 1 1 0 2 1 3 1 2 1 3 4 5 5 4 6 9 10 11 12 12 12 12 12 12 12 12 12 11 11 10 10 10 10 9 9 9 9 9 9 9
4 4 5 6 5 5 3 1 2 2 2 3 3 2 3 2 1 1 2 4 4 4 4 4 7 8 10 10 11 12 11 11 11 11 11 12 11 11 10 10 10 9 9 9 9 9 8 8 8
4 4 3 4 5 6 2 1 1 3 4 2 3 3 3 3 0 2 3 3 3 3 3 3 5 6 7 9 10 11 11 12 11 10 10 11 11 11 10 10 9 9 9 8 8 8 8 7 7
3 3 6 7 7 4 1 1 2 1 1 1 1 2 2 1 3 4 3 2 2 3 3 3 4 5 6 7 9 9 10 11 11 11 11 10 9 9 9 9 9 8 8 8 7 7 7 7 7
3 5 8 4 4 3 2 2 2 2 2 2 2 2 1 3 4 5 5 5 5 5 4 4 4 4 6 6 7 7 7 8 9 9 9 8 7 7 8 9 8 8 7 7 7 6 7 7 6
2 5 3 2 1 1 2 3 2 2 4 5 5 4 2 3 4 6 7 7 7 5 5 4 5 5 5 4 6 6 6 6 7 9 9 8 7 6 6 6 6 6 6 5 5 6 6 6 5
1 3 2 2 1 2 3 3 4 6 8 5 5 4 5 6 7 8 8 7 5 5 5 5 5 5 5 5 5 5 5 5 5 7 9 8 5 5 5 4 4 5 5 4 4 4 5 5 5
2 3 3 4 4 4 4 6 6 9 9 6 4 4 7 8 8 8 7 6 5 6 6 6 6 6 6 5 4 5 5 5 6 7 7 8 6 5 5 4 4 4 5 5 4 4 4 4 4
3 3 5 5 5 3 5 7 6 10 6 5 4 6 7 8 8 6 6 7 7 7 7 6 7 7 7 6 5 5 5 6 6 6 7 8 7 6 5 4 4 4 5 5 5 4 4 3 3
2 4 5 4 4 3 2 9 9 8 4 5 6 6 7 7 7 8 8 8 8 8 7 7 8 8 8 7 6 5 6 7 6 6 7 8 8 8 6 5 4 4 5 5 5 4 3 2 2
1 1 3 3 2 2 3 11 7 4 4 6 7 7 7 7 8 9 8 8 8 7 7 8 7 8 8 7 6 5 6 6 6 7 7 8 9 9 7 5 5 5 5 5 4 3 2 1 1
1 2 4 5 2 1 5 10 7 4 4 7 7 7 8 8 9 9 8 8 8 8 8 8 8 9 9 7 5 5 5 5 6 7 7 8 9 9 8 6 5 7 5 3 3 2 2 2 1
3 3 5 6 3 3 7 13 12 7 6 8 8 8 8 10 11 9 8 8 8 7 7 8 7 8 8 6 4 4 4 4 5 6 7 8 9 9 8 6 6 7 4 3 3 3 2 2 2
3 4 9 8 5 5 10 15 16 10 8 9 9 9 10 11 9 7 7 6 6 6 6 7 8 8 7 6 6 5 5 4 4 5 7 9 9 9 8 6 6 6 5 5 4 3 3 2 2
4 7 9 8 5 6 9 15 13 9 8 9 10 10 10 10 8 7 6 5 6 7 7 7 8 8 8 7 6 4 4 4 4 4 6 8 9 9 8 7 6 6 5 5 5 4 3 2 2
6 8 7 8 8 4 7 10 9 6 6 8 9 9 9 10 10 8 7 7 7 7 7 7 8 8 8 7 5 3 3 2 3 4 5 6 9 9 9 8 7 7 6 6 6 6 5 4 3
7 6 6 7 5 5 1 7 9 6 7 8 9 8 9 9 9 8 7 7 7 8 6 6 6 7 7 8 7 8 7 6 6 5 5 5 7 8 9 8 8 7 6 6 6 6 4 5 4
5 3 4 5 4 6 4 5 9 3 7 8 9 9 9 8 8 8 7 8 7 6 6 6 5 6 6 7 9 9 7 5 3 3 5 5 5 6 8 8 7 7 6 6 6 6 5 4 5
2 1 2 1 0 5 5 5 8 5 7 7 6 7 7 7 7 7 6 6 5 4 4 5 5 5 6 7 7 8 8 6 5 5 6 5 4 4 6 7 7 7 6 6 6 6 6 4 4
2 2 3 3 2 6 3 5 9 7 6 7 7 7 7 6 5 5 5 4 4 5 5 5 6 6 6 7 7 8 8 8 8 7 7 5 4 4 6 5 6 6 6 6 6 6 5 5 5
3 4 4 4 5 5 3 7 8 6 5 4 5 6 5 5 5 5 4 4 4 5 5 5 6 6 6 7 7 6 6 5 5 6 5 6 5 5 5 6 6 6 6 6 6 5 5 5 5
3 3 3 2 2 4 6 7 9 5 5 5 5 5 5 5 5 5 4 4 4 4 4 4 5 5 6 6 6 6 6 6 5 5 4 4 4 3 5 5 5 5 6 6 6 5 5 5 5
2 3 2 2 2 5 6 5 5 7 6 6 6 6 6 5 6 6 4 4 3 2 2 1 2 4 4 5 5 5 5 6 5 5 5 5 4 4 5 5 4 4 5 5 5 5 5 5 5
3 2 2 2 3 3 4 6 3 6 5 4 5 6 6 6 5 5 5 4 3 2 1 0 1 2 3 4 4 4 4 4 5 5 5 5 4 4 5 5 5 5 5 5 5 5 5 5 5
3 4 4 3 4 4 3 7 4 3 3 3 5 6 5 6 6 6 6 5 3 2 1 0 1 1 2 3 4 4 4 4 5 5 5 5 5 4 4 5 5 5 5 5 6 6 5 6 6
Wind_Direction
337 345 41 57 64 63 230 234 215 236 234 238 188 169 172 169 172 200 347 130 133 152 164 164 157 155 153 149 144 139 137 133 131 129 126 123 120 118 117 115 111 107 104 101 101 100 97 96 93
338 358 50 66 118 199 247 231 219 218 215 100 55 92 131 210 296 108 120 175 139 148 156 163 158 154 154 152 148 144 140 139 135 133 130 127 124 122 119 117 113 110 106 101 102 102 98 96 97
357 41 85 95 161 197 218 225 221 249 261 121 50 41 181 237 225 190 226 166 132 134 149 164 160 156 154 154 152 149 145 143 141 137 135 133 131 128 126 121 117 113 109 105 104 104 102 98 98
61 50 62 111 216 218 209 230 203 238 342 83 130 310 282 329 198 220 179 150 135 135 145 163 159 160 158 155 154 154 152 148 146 144 141 139 137 134 131 128 123 118 113 111 108 105 102 101 99
62 85 106 227 237 243 242 256 217 187 219 204 142 231 276 339 32 112 141 145 141 139 143 158 158 162 160 159 157 155 155 154 150 151 148 145 142 138 133 130 127 123 118 115 113 110 105 104 103
67 84 150 223 238 255 266 269 233 260 259 206 155 219 252 11 48 112 138 146 145 146 145 158 160 159 161 160 158 156 156 156 157 156 154 151 148 144 140 136 132 129 126 120 116 111 107 107 108
127 132 194 213 235 249 258 239 174 232 245 235 194 191 280 311 314 118 125 138 137 140 141 156 161 159 159 162 165 161 158 156 157 157 159 155 152 149 146 141 135 131 127 124 118 113 109 106 108
132 133 186 212 217 240 262 261 204 204 242 259 160 174 254 265 288 97 92 115 131 138 145 156 155 157 156 160 164 166 164 160 158 156 155 157 156 153 148 141 139 134 130 127 123 115 112 106 107
105 141 210 208 202 227 250 279 297 284 196 267 232 209 271 141 128 114 101 112 159 171 176 168 157 154 153 155 160 160 165 163 159 157 154 151 152 150 146 143 142 139 134 129 125 118 107 102 106
117 195 218 203 190 201 235 234 264 338 294 260 276 304 17 126 155 167 184 199 198 202 199 182 167 156 151 156 151 151 155 158 153 149 148 145 141 146 144 144 144 142 136 132 126 120 107 98 97
162 209 226 239 245 228 246 260 250 211 248 227 237 254 187 177 196 204 207 209 212 208 203 193 179 165 156 153 149 145 146 147 149 150 150 145 139 138 137 138 141 136 131 125 120 105 101 99 97
206 255 246 265 283 262 246 265 266 225 234 240 236 216 196 203 213 218 221 221 216 212 213 199 181 172 168 159 158 155 152 154 156 161 158 150 144 140 141 143 144 138 136 124 115 108 106 105 106
232 273 274 277 277 258 256 250 256 252 254 265 255 218 218 222 231 235 230 224 217 217 216 210 188 177 174 166 169 165 165 169 169 167 169 164 158 157 152 155 156 152 146 140 131 121 114 112 110
236 264 273 276 266 260 250 263 247 256 253 257 245 240 236 229 233 243 243 233 221 220 216 213 199 184 177 179 178 176 173 171 171 175 178 174 169 166 162 162 163 167 162 155 148 142 131 126 121
270 290 294 262 242 242 251 273 239 249 244 252 256 253 251 247 242 239 240 239 232 223 215 209 208 187 181 181 184 180 176 174 178 182 181 181 178 174 170 167 171 175 167 156 142 132 125 121 111
336 301 282 278 227 225 186 260 258 250 230 251 257 259 259 258 247 246 246 247 240 226 215 211 212 193 189 186 183 183 180 179 182 183 185 188 187 181 174 172 181 177 163 156 152 148 147 150 150
20 246 258 288 247 229 215 258 269 262 243 255 261 261 262 268 266 257 246 245 238 225 215 210 211 196 190 186 181 180 182 187 185 185 188 191 191 187 180 180 183 174 162 161 168 163 162 169 177
228 235 255 262 280 279 260 267 279 273 257 255 262 264 264 263 263 264 251 245 239 226 216 213 208 198 184 178 173 174 183 193 191 192 193 192 192 189 183 181 182 174 167 172 171 173 166 171 176
205 240 263 270 286 283 267 276 279 275 263 262 263 263 261 262 265 263 254 246 238 223 217 214 207 197 181 181 183 185 195 198 201 203 194 194 192 189 184 183 179 177 183 186 177 173 168 176 155
235 255 268 284 285 279 280 278 276 264 253 251 253 258 260 264 272 266 259 245 237 226 218 217 212 202 191 190 186 185 183 194 202 201 194 195 193 190 191 185 185 184 184 184 184 177 171 185 177
241 238 252 273 308 299 295 288 270 264 249 258 256 255 257 252 256 260 254 247 238 231 223 220 218 209 196 185 169 157 148 153 185 197 200 198 196 194 192 190 189 190 189 195 193 188 187 190 203
254 233 245 270 296 293 301 289 281 271 271 266 265 265 262 261 256 256 251 250 237 234 230 223 221 212 196 183 180 180 190 200 205 199 200 196 197 195 192 190 191 192 192 198 201 196 199 186 197
229 249 250 263 261 285 257 250 281 273 273 276 273 267 268 268 260 256 250 247 240 231 225 219 215 210 195 187 187 190 200 205 200 189 187 195 198 197 193 189 190 193 196 196 197 196 197 200 200
211 356 314 294 228 269 242 219 276 247 246 270 279 282 281 279 270 260 256 251 243 237 227 215 207 207 193 187 189 194 198 194 191 194 193 196 201 198 192 189 191 193 194 197 200 199 198 202 201
110 94 355 341 307 254 238 229 256 253 249 249 273 289 291 290 285 277 270 252 243 240 233 222 205 204 196 190 194 198 199 196 199 198 194 192 199 205 199 193 190 191 194 197 195 196 199 197 196
192 173 191 230 244 284 284 244 261 274 287 278 282 292 299 303 301 293 278 263 251 245 233 225 210 203 196 195 198 195 197 200 204 200 195 197 203 205 192 190 192 192 188 194 193 196 203 197 198
168 201 198 186 258 278 268 279 296 301 326 332 327 324 317 313 310 298 290 282 271 259 242 224 208 203 200 200 196 194 196 198 200 192 190 194 196 192 181 185 191 194 188 188 189 200 201 196 201
179 162 129 165 229 266 283 276 278 305 313 327 328 322 321 328 325 320 317 315 306 278 270 243 203 196 195 189 189 194 195 194 190 182 186 190 190 182 181 187 191 195 189 184 183 193 195 195 202
173 174 182 188 195 210 274 276 269 285 296 312 316 324 333 335 326 324 330 331 319 321 332 237 204 185 186 184 182 186 193 190 186 188 193 191 190 185 188 189 190 192 188 185 183 194 194 195 201
199 201 183 203 239 213 235 274 306 301 325 345 331 331 344 342 340 338 341 346 345 337 342 350 242 209 202 192 182 187 190 188 191 194 197 190 192 190 195 188 187 191 189 190 189 193 197 197 202
Height
1489 1490 1491 1493 1497 1508 1508 1501 1497 1496 1494 1493 1493 1494 1494 1496 1499 1502 1497 1495 1497 1499 1502 1504 1507 1509 1511 1513 1514 1516 1517 1518 1519 1520 1521 1521 1522 1523 1524 1525 1526 1526 1527 1528 1528 1529 1529 1530 1531
1488 1490 1492 1493 1502 1511 1507 1498 1496 1493 1492 1492 1492 1492 1493 1493 1494 1494 1493 1495 1497 1499 1501 1504 1506 1508 1510 1512 1514 1515 1516 1518 1519 1520 1521 1522 1522 1523 1524 1525 1526 1526 1527 1528 1529 1529 1530 1530 1531
1488 1489 1492 1495 1503 1504 1498 1493 1492 1491 1491 1491 1491 1492 1492 1493 1493 1493 1493 1494 1497 1499 1501 1503 1505 1507 1509 1511 1513 1515 1516 1517 1518 1520 1521 1521 1522 1523 1524 1525 1526 1527 1527 1528 1529 1529 1530 1531 1531
1488 1490 1492 1499 1499 1495 1492 1490 1489 1490 1490 1490 1491 1492 1492 1493 1492 1492 1493 1494 1496 1498 1500 1503 1505 1507 1509 1510 1512 1514 1515 1517 1518 1519 1520 1521 1522 1523 1524 1525 1526 1527 1527 1528 1529 1529 1530 1531 1531
1487 1489 1495 1500 1496 1492 1489 1488 1488 1489 1489 1490 1491 1491 1491 1492 1491 1492 1492 1494 1495 1497 1500 1502 1504 1506 1508 1509 1511 1513 1514 1516 1517 1518 1520 1521 1522 1523 1524 1525 1526 1526 1527 1528 1529 1530 1530 1531 1532
1487 1488 1499 1498 1493 1490 1488 1488 1488 1489 1489 1490 1490 1490 1490 1490 1490 1491 1492 1493 1495 1497 1499 1501 1503 1505 1507 1508 1510 1512 1513 1515 1516 1518 1519 1520 1521 1522 1523 1524 1525 1526 1527 1528 1529 1529 1530 1531 1532
1486 1491 1494 1494 1493 1490 1488 1487 1487 1488 1488 1489 1489 1490 1488 1489 1490 1490 1491 1493 1494 1496 1498 1500 1502 1503 1505 1507 1509 1511 1512 1514 1515 1516 1518 1519 1520 1521 1523 1524 1525 1526 1527 1527 1528 1529 1530 1531 1532
1484 1489 1492 1493 1492 1489 1486 1486 1486 1487 1487 1488 1488 1488 1488 1488 1488 1489 1490 1492 1493 1495 1496 1498 1500 1502 1503 1505 1507 1509 1511 1512 1514 1515 1516 1518 1519 1520 1522 1523 1524 1525 1526 1527 1528 1529 1530 1530 1531
1483 1491 1491 1489 1489 1486 1485 1485 1485 1486 1486 1486 1486 1487 1487 1487 1487 1488 1488 1490 1491 1493 1495 1496 1498 1500 1502 1503 1505 1507 1509 1511 1512 1514 1515 1517 1518 1519 1520 1522 1523 1524 1525 1526 1527 1528 1529 1530 1531
1483 1488 1484 1483 1483 1484 1484 1484 1484 1484 1484 1484 1484 1485 1485 1485 1485 1485 1485 1486 1487 1489 1492 1494 1496 1498 1500 1502 1504 1505 1507 1509 1510 1512 1513 1515 1516 1517 1519 1521 1522 1523 1524 1525 1526 1527 1528 1529 1530
1482 1483 1482 1482 1482 1482 1483 1483 1483 1483 1483 1482 1482 1482 1483 1483 1483 1484 1484 1484 1485 1487 1489 1491 1493 1496 1498 1499 1501 1503 1505 1507 1508 1510 1511 1513 1515 1516 1517 1519 1520 1522 1523 1524 1525 1526 1527 1528 1529
1483 1482 1482 1481 1482 1482 1482 1482 1482 1480 1479 1480 1480 1480 1480 1481 1481 1481 1481 1482 1483 1484 1486 1488 1490 1493 1495 1497 1499 1501 1502 1504 1506 1507 1509 1511 1512 1514 1516 1517 1519 1520 1522 1523 1524 1525 1526 1527 1528
1482 1481 1481 1480 1481 1480 1480 1480 1479 1476 1476 1476 1477 1477 1477 1478 1478 1478 1479 1480 1481 1481 1483 1485 1487 1489 1491 1494 1496 1498 1500 1502 1503 1505 1507 1509 1510 1512 1514 1515 1517 1519 1520 1521 1523 1524 1525 1526 1527
1481 1481 1480 1479 1479 1479 1478 1476 1477 1470 1472 1473 1473 1474 1474 1474 1475 1475 1475 1476 1477 1478 1479 1481 1483 1486 1488 1490 1492 1495 1497 1499 1501 1503 1504 1506 1508 1510 1512 1513 1515 1517 1518 1520 1521 1522 1523 1524 1525
1480 1481 1478 1477 1476 1476 1477 1474 1470 1468 1470 1470 1470 1470 1470 1470 1471 1471 1471 1472 1473 1474 1475 1477 1479 1482 1484 1486 1489 1491 1493 1496 1498 1500 1502 1504 1506 1508 1510 1511 1513 1514 1516 1518 1519 1520 1521 1522 1523
1480 1482 1481 1476 1475 1474 1479 1472 1466 1466 1467 1466 1466 1467 1466 1466 1467 1467 1468 1468 1469 1470 1471 1473 1475 1477 1480 1482 1485 1487 1490 1492 1495 1497 1499 1501 1503 1505 1507 1509 1510 1512 1513 1515 1516 1517 1519 1519 1520
1483 1484 1482 1477 1474 1474 1475 1470 1463 1463 1463 1463 1462 1462 1462 1462 1462 1463 1464 1464 1465 1466 1467 1469 1470 1473 1475 1478 1481 1484 1486 1488 1491 1493 1496 1498 1500 1502 1504 1506 1507 1509 1511 1512 1513 1515 1516 1516 1517
1483 1484 1482 1479 1474 1474 1473 1467 1461 1461 1461 1459 1458 1458 1457 1457 1457 1458 1459 1460 1461 1462 1463 1464 1465 1468 1471 1474 1476 1479 1482 1484 1487 1489 1491 1494 1496 1498 1500 1502 1504 1506 1507 1509 1510 1511 1513 1514 1514
1481 1483 1482 1477 1474 1474 1471 1465 1458 1456 1456 1455 1454 1453 1452 1452 1453 1454 1454 1455 1456 1457 1458 1460 1461 1463 1465 1468 1470 1473 1476 1479 1482 1485 1487 1490 1492 1494 1496 1498 1500 1502 1504 1505 1507 1508 1509 1510 1511
1481 1482 1480 1476 1472 1472 1468 1462 1454 1452 1451 1450 1449 1448 1448 1448 1447 1448 1449 1449 1450 1452 1453 1455 1456 1458 1460 1463 1466 1469 1472 1475 1478 1481 1483 1485 1487 1490 1492 1494 1496 1498 1500 1502 1503 1504 1505 1506 1508
1479 1480 1478 1476 1472 1470 1470 1460 1451 1447 1446 1445 1444 1443 1443 1443 1442 1443 1443 1444 1446 1447 1448 1449 1451 1453 1455 1458 1462 1465 1468 1470 1473 1475 1478 1480 1483 1485 1487 1489 1492 1493 1496 1497 1499 1500 1501 1502 1504
1476 1474 1474 1473 1476 1476 1474 1468 1450 1447 1444 1441 1440 1439 1438 1438 1438 1439 1439 1439 1440 1442 1443 1445 1446 1447 1450 1453 1456 1459 1461 1463 1466 1470 1473 1475 1478 1480 1482 1485 1487 1489 1491 1493 1494 1496 1497 1499 1499
1472 1471 1472 1473 1475 1477 1474 1473 1452 1446 1443 1438 1436 1434 1434 1434 1434 1434 1434 1435 1436 1437 1439 1440 1441 1443 1445 1448 1451 1454 1457 1459 1463 1466 1468 1470 1473 1475 1478 1480 1482 1484 1486 1488 1490 1491 1493 1494 1495
1471 1472 1473 1474 1476 1476 1470 1471 1454 1446 1439 1435 1433 1432 1430 1430 1430 1430 1431 1431 1432 1433 1434 1435 1437 1438 1441 1444 1446 1449 1452 1455 1458 1460 1463 1466 1468 1470 1473 1475 1477 1479 1481 1483 1485 1487 1488 1490 1491
1471 1476 1479 1479 1482 1473 1466 1465 1449 1437 1434 1432 1431 1430 1428 1427 1426 1426 1426 1427 1428 1429 1430 1431 1432 1434 1436 1439 1442 1445 1447 1450 1453 1456 1458 1461 1463 1465 1467 1470 1472 1474 1476 1479 1481 1482 1483 1485 1486
1472 1473 1478 1478 1479 1473 1467 1461 1443 1434 1431 1430 1429 1428 1426 1425 1424 1423 1423 1424 1424 1425 1425 1426 1427 1429 1432 1435 1438 1440 1443 1446 1449 1452 1454 1456 1458 1461 1463 1465 1467 1470 1472 1474 1475 1477 1478 1479 1481
1471 1473 1473 1478 1480 1478 1466 1456 1442 1433 1431 1429 1428 1427 1426 1424 1423 1422 1421 1421 1421 1422 1422 1422 1424 1426 1429 1431 1434 1437 1440 1442 1445 1447 1450 1452 1454 1456 1459 1461 1463 1465 1467 1469 1470 1471 1473 1474 1476
1470 1471 1475 1476 1476 1470 1462 1456 1446 1436 1433 1430 1429 1428 1425 1423 1422 1421 1420 1419 1419 1420 1420 1421 1422 1423 1425 1428 1431 1434 1436 1439 1441 1443 1445 1448 1450 1452 1454 1456 1458 1460 1462 1463 1465 1466 1468 1469 1470
1471 1472 1472 1474 1474 1472 1465 1450 1439 1437 1433 1431 1429 1428 1425 1423 1422 1420 1418 1418 1418 1418 1418 1419 1420 1421 1423 1425 1428 1430 1433 1435 1437 1439 1441 1444 1446 1448 1449 1451 1454 1455 1457 1458 1460 1461 1463 1464 1465
1467 1468 1470 1470 1471 1472 1469 1453 1437 1436 1433 1432 1430 1428 1426 1424 1422 1419 1417 1416 1416 1416 1417 1417 1418 1419 1421 1423 1425 1427 1429 1431 1433 1435 1438 1440 1441 1443 1445 1447 1449 1450 1452 1454 1455 1456 1458 1459 1460